Location: Songkhla
(7.2000°N, 100.6000°E)
Time: 05:41:30
(UTC+07:00)

First-Move - Pass Details

Date: 29 July 2021
Orbit: 576 x 665 km, 97.6° (Epoch: 15 September)

Event Time Altitude Azimuth Distance (km) Brightness Sun altitude
Rises 04:10:36 0° 28° (NNE) 2,951 ? -28.5°
Reaches altitude 10° 04:12:59 10° 38° (NE) 2,053 ? -27.9°
Maximum altitude 04:16:59 32° 101° (E) 1,133 ? -27.0°
Enters shadow 04:19:35 18° 152° (SSE) 1,593 ? -26.5°
